[[{"header":{"parameterUnit":"m.s-1","parameterCategory":1,"la1":30.2991,"la2":30.254,"lo1":-89.0895,"lo2":-89.0444,"dy":0.0017,"dx":0.0017,"nx":28,"ny":28,"refTime":"2023-07-25T21:00:00:Z","depth":0,"parameterNumber":2,"parameterNumberName":"U-component_of_WINDS"},"data":[0,0,0,0,0,0,0,0,0,0,0,0,0,0,0,0,0,0,0,0,0,0,0,0,0,0,0,0,0,0,0,0,0,0,0,0,0,0,0,0,0,0,0,0,0,0,0,0,0,0,0,0,0,0,0,0,0,0,0.944,0.9441,0,0.9553,0.9554,0.9555,0.9605,0.9605,0.9605,0.9605,0.9721,0.9724,0.9727,0,0,0,0,0,0,0,0,0,0,0,0,0,0.9265,0.9268,0.944,0.9441,0.9442,0.9552,0.9554,0.9556,0.9605,0.9605,0.9605,0.9605,0.972,0.9723,0.9727,0,0,0,0,0,0,0,0,0,0,0,0,0,0.9356,0.9269,0.9439,0.9481,0.9485,0.9552,0.9554,0.9556,0.9606,0.9605,0.9605,0.9605,0.9718,0.9723,0.9728,0.9762,0,0,0.9743,0.9745,0,0,0,0,0,0,0,0,0.9351,0.9362,0.9473,0.9478,0.9483,0.9565,0.9535,0.9625,0.9606,0.956,0.9605,0.9605,0.9669,0.9678,0.97,0.9767,0.9772,0.9743,0.9746,0.9748,0.9749,0,0,0,0,0,0,0,0.9344,0.9358,0.9484,0.9475,0.9481,0.9493,0.9506,0.9552,0.9614,0.9564,0.9568,0.9581,0.9672,0.9695,0.9703,0.9774,0.9743,0.9747,0.975,0.9752,0.9874,0.9875,0,0,0,0,0,0,0.9332,0.9352,0.9481,0.9488,0.9415,0.9496,0.951,0.9539,0.9614,0.9625,0.9581,0.9582,0.9687,0.9697,0.9707,0.9751,0.9748,0.9753,0.9755,0.9874,0.9874,0.9875,0,0,0,0,0,0,0.9328,0.9343,0.9476,0.9421,0.9439,0.95,0.9531,0.9541,0.9564,0.9627,0.9638,0.9593,0.9687,0.97,0.9748,0.9756,0.9755,0.9759,0.9874,0.9874,0.9875,0.9841,0,0,0,0,0,0,0.9322,0.9341,0.9355,0.9421,0.9442,0.9515,0.9532,0.9544,0.9573,0.9576,0.9641,0.9652,0.9688,0.974,0.9752,0.9763,0.9763,0.9873,0.9874,0.9875,0.9841,0.984,0.9839,0,0,0,0,0,0.9316,0.9341,0.9355,0.9371,0.9461,0.9516,0.9528,0.9569,0.9573,0.9587,0.9627,0.965,0.9753,0.9745,0.9759,0.9771,0.9873,0.9874,0.9874,0.9842,0.984,0.9839,0,0,0,0,0,0,0.9275,0.9351,0.9367,0.9415,0.9458,0.9524,0.9544,0.9566,0.9609,0.9611,0.966,0.9674,0.9717,0.9749,0.9738,0.9807,0.9815,0.9818,0.9785,0.9784,0.9783,0.9774,0.9767,0,0,0,0,0,0.9271,0.931,0.9374,0.9409,0.943,0.9483,0.9509,0.9536,0.9584,0.9602,0.9646,0.969,0.9733,0.976,0.9803,0.9846,0.986,0.9861,0.9859,0.9858,0.9861,0.9885,0.9886,0.9878,0.9878,0.9877,0,0,0.9264,0.931,0.9332,0.9402,0.9439,0.9478,0.9498,0.9538,0.9567,0.9609,0.9656,0.9689,0.9742,0.9787,0.9809,0.9815,0.9866,0.9859,0.9857,0.9861,0.9886,0.9886,0.9887,0.9878,0.9878,0.9878,0,0,0.9271,0.931,0.9343,0.938,0.9436,0.947,0.9478,0.954,0.9564,0.9612,0.9643,0.9678,0.9751,0.9787,0.9815,0.9833,0.9856,0.9846,0.984,0.9862,0.9863,0.9864,0.987,0.9872,0.9848,0.9848,0.9848,0,0.9255,0.9315,0.9358,0.9396,0.9425,0.9464,0.9497,0.9531,0.9597,0.9617,0.9622,0.9713,0.9751,0.9805,0.9809,0.9831,0.9841,0.9839,0.9859,0.9861,0.9862,0.9869,0.9871,0.9847,0.9847,0.9847,0.9847,0,0.9292,0.9333,0.9353,0.9416,0.9448,0.9484,0.9531,0.9558,0.9582,0.9616,0.9664,0.9711,0.9764,0.9779,0.9803,0.9835,0.9837,0.985,0.9859,0.9861,0.9868,0.9871,0.9844,0.9845,0.9845,0.9846,0,0,0.9278,0.9363,0.937,0.9398,0.9462,0.9494,0.9531,0.9582,0.9604,0.9648,0.968,0.9739,0.9751,0.9783,0.9811,0.9831,0.9842,0.9842,0.9844,0.984,0.988,0.987,0.9872,0.9857,0.9858,0.9858,0.9876,0,0.9293,0.9361,0.94,0.9452,0.949,0.9526,0.9558,0.96,0.9632,0.9668,0.9703,0.9744,0.9757,0.9777,0.9798,0.9836,0.9851,0.9836,0.9887,0.9888,0.9873,0.9876,0.9866,0.9881,0.9879,0.9879,0.988,0,0.9321,0.9364,0.9419,0.9478,0.9495,0.9523,0.9572,0.9607,0.9654,0.9676,0.971,0.9739,0.9778,0.9783,0.9838,0.9827,0.985,0.9871,0.9873,0.988,0.9884,0.9883,0.9886,0.9888,0.9884,0.9884,0.9884,0,0.9304,0.9376,0.9419,0.9442,0.9511,0.953,0.9559,0.9607,0.9635,0.9677,0.9696,0.9742,0.9768,0.9803,0.9843,0.9843,0.9894,0.9902,0.9913,0.9912,0.9923,0.9922,0.993,0.9937,0.9937,0.9937,0.9937,0,0.9318,0.935,0.9412,0.9438,0.9475,0.9519,0.9554,0.9586,0.9628,0.9661,0.9694,0.9724,0.9775,0.981,0.9842,0.9882,0.9893,0.9912,0.992,0.9909,0.9907,0.9925,0.9926,0.9937,0.9937,0.9937,0.9937,0,0.9306,0.9349,0.9397,0.9458,0.9474,0.9498,0.955,0.9577,0.961,0.965,0.9662,0.9714,0.9758,0.9801,0.986,0.9881,0.9921,0.9931,0.9905,0.9909,0.9917,0.9916,0.9938,0.9943,0.9946,0.9946,0.9946,0,0.9312,0.9338,0.9401,0.9425,0.9454,0.9493,0.9521,0.9564,0.9592,0.9648,0.9667,0.9713,0.9752,0.982,0.9863,0.9908,0.992,0.9925,0.9927,0.9915,0.992,0.9919,0.9921,0.9924,0.9923,0.9923,0.9923,0,0.9318,0.9337,0.9377,0.9424,0.9456,0.9495,0.9535,0.9553,0.9604,0.9633,0.9678,0.9708,0.9768,0.9813,0.9863,0.9893,0.9916,0.9922,0.9927,0.9916,0.99,0.9909,0.9901,0.9921,0.9922,0.9922,0.9922,0.9922,0.9315,0.934,0.9388,0.943,0.9465,0.9501,0.9529,0.9565,0.9603,0.9655,0.9678,0.9723,0.9769,0.9838,0.9867,0.9903,0.9909,0.9916,0.9918,0.9919,0.9917,0.9893,0.9912,0.9912,0.9912,0.9912,0.9913,0,0.9323,0.9356,0.9394,0.9449,0.9482,0.9501,0.9545,0.9572,0.9611,0.9652,0.969,0.9741,0.9784,0.983,0.9876,0.9896,0.9908,0.9907,0.9906,0.9912,0.9909,0.99,0.9896,0.9896,0.9896,0.9896,0.9896,0.9896,0.9331,0.9373,0.9398,0.9456,0.9489,0.9533,0.9557,0.959,0.9623,0.9679,0.9715,0.9744,0.9787,0.9836,0.9877,0.9889,0.9905,0.99,0.9916,0.9912,0.9913,0.9914,0.9906,0.9903,0.9903,0.9917,0.9917,0.9917]},{"header":{"parameterUnit":"m.s-1","parameterCategory":1,"la1":30.2991,"la2":30.254,"lo1":-89.0895,"lo2":-89.0444,"dy":0.0017,"dx":0.0017,"nx":28,"ny":28,"refTime":"2023-07-25T21:00:00:Z","depth":0,"parameterNumber":3,"parameterNumberName":"V-component_of_WINDS"},"data":[0,0,0,0,0,0,0,0,0,0,0,0,0,0,0,0,0,0,0,0,0,0,0,0,0,0,0,0,0,0,0,0,0,0,0,0,0,0,0,0,0,0,0,0,0,0,0,0,0,0,0,0,0,0,0,0,0,0,4.0483,4.0482,0,4.0411,4.041,4.0409,4.036,4.036,4.036,4.0359,4.0279,4.0277,4.0275,0,0,0,0,0,0,0,0,0,0,0,0,0,4.0573,4.0571,4.0483,4.0482,4.0481,4.0411,4.041,4.0409,4.036,4.036,4.036,4.0359,4.0279,4.0277,4.0275,0,0,0,0,0,0,0,0,0,0,0,0,0,4.052,4.0571,4.0483,4.0449,4.0445,4.0411,4.041,4.0409,4.036,4.036,4.036,4.0359,4.028,4.0277,4.0275,4.0267,0,0,4.0266,4.0265,0,0,0,0,0,0,0,0,4.0523,4.0517,4.0455,4.0451,4.0447,4.0394,4.0412,4.0361,4.0361,4.0392,4.0359,4.0359,4.0317,4.0311,4.0298,4.0263,4.026,4.0266,4.0264,4.0263,4.0262,0,0,0,0,0,0,0,4.0527,4.052,4.0454,4.0454,4.0449,4.0435,4.0427,4.0402,4.0358,4.0389,4.0386,4.0378,4.0315,4.0301,4.0296,4.0259,4.0266,4.0263,4.0262,4.0261,4.0213,4.0213,0,0,0,0,0,0,4.0537,4.0523,4.0456,4.0452,4.0485,4.0434,4.0425,4.0411,4.0358,4.035,4.0379,4.0376,4.0306,4.03,4.0293,4.028,4.0263,4.026,4.0259,4.0213,4.0213,4.0214,0,0,0,0,0,0,4.0539,4.0532,4.0459,4.0487,4.0476,4.0433,4.0418,4.041,4.0397,4.035,4.0341,4.0374,4.0306,4.0297,4.0274,4.0277,4.0259,4.0257,4.0212,4.0213,4.0213,4.0255,0,0,0,0,0,0,4.0542,4.0533,4.0531,4.0487,4.0475,4.0444,4.0418,4.0409,4.0393,4.0389,4.0343,4.0335,4.0305,4.0279,4.0272,4.0273,4.0254,4.0212,4.0212,4.0213,4.0253,4.0257,4.0261,0,0,0,0,0,4.0545,4.0544,4.0531,4.0523,4.0472,4.0444,4.0437,4.0404,4.0393,4.039,4.036,4.0336,4.0278,4.0277,4.0268,4.0269,4.0211,4.0212,4.0213,4.0252,4.0257,4.0261,0,0,0,0,0,0,4.0586,4.0538,4.0522,4.0507,4.0481,4.0436,4.0431,4.041,4.0384,4.0381,4.0339,4.0329,4.031,4.0287,4.0287,4.0258,4.0242,4.0241,4.0274,4.0278,4.0282,4.0287,4.0252,0,0,0,0,0,4.0594,4.0578,4.0535,4.0525,4.0513,4.0475,4.0461,4.0438,4.0408,4.0395,4.0364,4.0333,4.0308,4.0292,4.0266,4.0251,4.0239,4.0246,4.025,4.0253,4.0252,4.0242,4.0244,4.0217,4.0217,4.0217,0,0,4.0609,4.058,4.0572,4.0533,4.0509,4.0491,4.0465,4.0446,4.0432,4.0392,4.0369,4.0345,4.0308,4.0289,4.0278,4.0268,4.0258,4.0254,4.0257,4.0255,4.0243,4.0245,4.0248,4.0217,4.0217,4.0217,0,0,4.0627,4.0604,4.0594,4.0571,4.0537,4.0512,4.0509,4.0468,4.0451,4.0428,4.0398,4.0379,4.0336,4.0311,4.0293,4.0303,4.0279,4.0295,4.0313,4.0303,4.0305,4.0307,4.0309,4.031,4.0295,4.0295,4.0295,0,4.0649,4.0622,4.059,4.0574,4.0557,4.0523,4.0511,4.049,4.0448,4.0437,4.0427,4.0374,4.0347,4.0321,4.0323,4.031,4.0304,4.0299,4.0308,4.0309,4.031,4.0312,4.0313,4.0297,4.0297,4.0297,4.0297,0,4.065,4.0632,4.0627,4.0591,4.0573,4.0559,4.0524,4.051,4.0489,4.0464,4.0441,4.0407,4.0374,4.0367,4.0345,4.0337,4.0332,4.0316,4.0298,4.0315,4.0316,4.0317,4.03,4.0299,4.0299,4.0298,0,0,4.0689,4.0637,4.0636,4.0619,4.0579,4.0563,4.0547,4.0517,4.0506,4.0478,4.0462,4.0428,4.0413,4.0392,4.0368,4.0359,4.0368,4.0344,4.0342,4.0348,4.0356,4.0368,4.0369,4.0353,4.0353,4.0353,4.0359,0,4.07,4.0672,4.0643,4.0624,4.0606,4.0574,4.056,4.0533,4.051,4.049,4.0463,4.0439,4.0422,4.0409,4.0399,4.0369,4.0369,4.0368,4.0336,4.0335,4.0345,4.037,4.0382,4.0389,4.0359,4.0359,4.0359,0,4.0708,4.0685,4.0665,4.0627,4.0618,4.0607,4.0577,4.0559,4.0527,4.0511,4.0489,4.0463,4.0443,4.0429,4.0399,4.04,4.0385,4.0368,4.0368,4.0362,4.0347,4.0363,4.039,4.0391,4.0359,4.0359,4.0359,0,4.0737,4.0701,4.0684,4.067,4.0627,4.0619,4.06,4.0568,4.0552,4.0525,4.0514,4.0485,4.0468,4.0446,4.0412,4.0405,4.0386,4.0369,4.0369,4.037,4.0365,4.0366,4.0389,4.0358,4.0358,4.0358,4.0358,0,4.0751,4.074,4.0697,4.0686,4.0672,4.0639,4.0626,4.0603,4.0576,4.0559,4.0529,4.0513,4.0471,4.045,4.0424,4.0403,4.0396,4.038,4.0373,4.0382,4.0384,4.037,4.0368,4.0359,4.0359,4.0358,4.0358,0,4.078,4.0752,4.0731,4.0692,4.0682,4.0674,4.0639,4.0627,4.0603,4.0582,4.0575,4.0536,4.051,4.0475,4.0437,4.0419,4.0401,4.039,4.0412,4.0408,4.041,4.041,4.0424,4.0423,4.0395,4.0395,4.0395,0,4.079,4.0781,4.0742,4.073,4.0713,4.0693,4.0678,4.0645,4.0629,4.0593,4.0585,4.0557,4.0533,4.0492,4.0458,4.0429,4.0417,4.0424,4.0412,4.0422,4.0415,4.0416,4.0414,4.0426,4.0427,4.0427,4.0428,0,4.081,4.0797,4.0777,4.0752,4.0734,4.0712,4.0688,4.068,4.0641,4.0625,4.0599,4.0581,4.0544,4.0515,4.0482,4.046,4.0437,4.0432,4.043,4.0439,4.0451,4.0443,4.0419,4.0431,4.0431,4.0431,4.0431,4.043,4.0829,4.082,4.0791,4.0769,4.0749,4.0728,4.0715,4.069,4.0669,4.0637,4.0619,4.0593,4.0562,4.0515,4.0494,4.0472,4.0463,4.0461,4.046,4.046,4.0462,4.0457,4.0466,4.0466,4.0466,4.0466,4.0466,0,4.0847,4.0828,4.0808,4.0777,4.076,4.0743,4.0716,4.0702,4.0681,4.0655,4.0632,4.0602,4.0575,4.0541,4.0511,4.05,4.0489,4.0493,4.0493,4.0488,4.0473,4.0477,4.0503,4.0503,4.0503,4.0503,4.0503,4.0503,4.0854,4.0837,4.082,4.0792,4.0772,4.0749,4.0735,4.0715,4.0694,4.0663,4.0641,4.062,4.059,4.0558,4.0532,4.0522,4.0512,4.0519,4.0506,4.0492,4.0489,4.0486,4.0489,4.0518,4.0518,4.0523,4.0523,4.0523]}]]